• Em Portugal
  • Lista de países
  • Para 7 dias
  • Temperatura da água
  • Mapas de satélite
  • Mapa do tempo
  • Widgets de tempo
  • user-avatar
    Iniciar Sessão

    Previsão horária em Yeghegnadzor

    Hoje, 21 Novembro, Terça-feira

    Tempo Temperatura Precipitação Vento Pressão Humidade
    00:00 +7°C° 0 mm 3 m/s 649 mmHg 72%
    01:00 +7°C° 0 mm 3 m/s 649 mmHg 72%
    02:00 +7°C° 0 mm 3 m/s 649 mmHg 72%
    03:00 +7°C° 0 mm 3 m/s 648 mmHg 76%
    04:00 +7°C° 0 mm 3 m/s 648 mmHg 75%
    05:00 +7°C° 0 mm 3 m/s 648 mmHg 74%
    06:00 +5°C° 0 mm 3 m/s 648 mmHg 73%
    07:00 +8°C° 0 mm 3 m/s 648 mmHg 70%
    08:00 +9°C° 0 mm 3 m/s 648 mmHg 67%
    09:00 +10°C° 0 mm 3 m/s 648 mmHg 63%
    10:00 +10°C° 0,1 mm 3 m/s 648 mmHg 63%
    11:00 +11°C° 0,1 mm 4 m/s 647 mmHg 64%
    12:00 +11°C° 0,1 mm 4 m/s 647 mmHg 64%
    13:00 +11°C° 0,2 mm 4 m/s 647 mmHg 66%
    14:00 +11°C° 0,2 mm 4 m/s 646 mmHg 68%
    15:00 +10°C° 0,2 mm 4 m/s 646 mmHg 71%
    16:00 +10°C° 0 mm 3 m/s 646 mmHg 73%
    17:00 +9°C° 0 mm 3 m/s 645 mmHg 76%
    18:00 +8°C° 0 mm 3 m/s 645 mmHg 78%
    19:00 +8°C° 0 mm 3 m/s 645 mmHg 77%
    20:00 +8°C° 0 mm 3 m/s 644 mmHg 77%
    21:00 +8°C° 0 mm 3 m/s 644 mmHg 77%
    22:00 +8°C° 0 mm 3 m/s 644 mmHg 78%
    23:00 +6°C° 0 mm 4 m/s 644 mmHg 79%

    Amanhã, 22 Novembro, Quarta-feira

    Tempo Temperatura Precipitação Vento Pressão Humidade
    00:00 +6°C° 0 mm 4 m/s 643 mmHg 80%
    01:00 +6°C° 0 mm 4 m/s 643 mmHg 80%
    02:00 +7°C° 0 mm 3 m/s 643 mmHg 79%
    03:00 +7°C° 0 mm 3 m/s 643 mmHg 79%
    04:00 +7°C° 0 mm 3 m/s 643 mmHg 79%
    05:00 +5°C° 0 mm 3 m/s 643 mmHg 78%
    06:00 +5°C° 0 mm 4 m/s 643 mmHg 78%
    07:00 +7°C° 0,4 mm 3 m/s 643 mmHg 78%
    08:00 +7°C° 0,4 mm 3 m/s 643 mmHg 77%
    09:00 +8°C° 0,4 mm 3 m/s 643 mmHg 77%
    10:00 +7°C° 0,4 mm 4 m/s 643 mmHg 75%
    11:00 +7°C° 0,4 mm 4 m/s 643 mmHg 74%
    12:00 +7°C° 0,4 mm 5 m/s 643 mmHg 72%
    13:00 +7°C° 0,7 mm 5 m/s 643 mmHg 73%
    14:00 +6°C° 0,7 mm 4 m/s 643 mmHg 73%
    15:00 +6°C° 0,7 mm 4 m/s 643 mmHg 74%
    16:00 +5°C° 0,6 mm 4 m/s 644 mmHg 77%
    17:00 +5°C° 0,6 mm 3 m/s 644 mmHg 79%
    18:00 +5°C° 0,6 mm 2 m/s 645 mmHg 82%
    19:00 +4°C° 0,3 mm 2 m/s 645 mmHg 82%
    20:00 +4°C° 0,3 mm 2 m/s 645 mmHg 82%
    21:00 +3°C° 0,3 mm 2 m/s 646 mmHg 82%
    22:00 +3°C° 0,1 mm 2 m/s 646 mmHg 81%
    23:00 +2°C° 0,1 mm 2 m/s 646 mmHg 80%

    Depois de amanhã, 23 Novembro, Quinta-feira

    Tempo Temperatura Precipitação Vento Pressão Humidade
    00:00 +2°C° 0,1 mm 2 m/s 646 mmHg 80%
    01:00 +1°C° 0,2 mm 2 m/s 646 mmHg 79%
    02:00 +1°C° 0,2 mm 2 m/s 646 mmHg 79%
    03:00 +1°C° 0,2 mm 2 m/s 647 mmHg 78%
    04:00 -1°C° 0,2 mm 2 m/s 647 mmHg 79%
    05:00 -1°C° 0,2 mm 2 m/s 647 mmHg 79%
    06:00 0°C° 0,2 mm 1 m/s 647 mmHg 80%
    07:00 -2°C° 0 mm 2 m/s 647 mmHg 76%
    08:00 -2°C° 0 mm 2 m/s 648 mmHg 73%
    09:00 -2°C° 0 mm 2 m/s 648 mmHg 69%
    10:00 -1°C° 0 mm 2 m/s 648 mmHg 68%
    11:00 -1°C° 0 mm 3 m/s 648 mmHg 68%
    12:00 0°C° 0 mm 3 m/s 648 mmHg 67%
    13:00 0°C° 0 mm 3 m/s 648 mmHg 68%
    14:00 0°C° 0 mm 3 m/s 647 mmHg 69%
    15:00 0°C° 0 mm 3 m/s 647 mmHg 70%
    16:00 0°C° 0 mm 3 m/s 647 mmHg 72%
    17:00 -1°C° 0 mm 3 m/s 648 mmHg 74%
    18:00 -2°C° 0 mm 3 m/s 648 mmHg 76%
    19:00 -2°C° 0,1 mm 3 m/s 648 mmHg 76%
    20:00 -2°C° 0,1 mm 2 m/s 648 mmHg 76%
    21:00 -2°C° 0,1 mm 2 m/s 648 mmHg 76%
    22:00 -2°C° 0,1 mm 2 m/s 648 mmHg 76%
    23:00 -2°C° 0,1 mm 2 m/s 649 mmHg 77%

    24 Novembro, Sexta-feira

    Tempo Temperatura Precipitação Vento Pressão Humidade
    00:00 -1°C° 0,1 mm 2 m/s 649 mmHg 78%
    01:00 -2°C° 0,4 mm 2 m/s 649 mmHg 80%
    02:00 0°C° 0,4 mm 1 m/s 649 mmHg 83%
    03:00 0°C° 0,4 mm 1 m/s 649 mmHg 85%
    04:00 0°C° 0,5 mm 1 m/s 649 mmHg 86%
    05:00 0°C° 0,5 mm 1 m/s 649 mmHg 87%
    06:00 0°C° 0,5 mm 1 m/s 649 mmHg 88%
    07:00 0°C° 0,3 mm 1 m/s 650 mmHg 87%
    08:00 0°C° 0,3 mm 1 m/s 650 mmHg 85%
    09:00 0°C° 0,3 mm 1 m/s 651 mmHg 84%
    10:00 0°C° 0,1 mm 1 m/s 650 mmHg 80%
    11:00 +1°C° 0,1 mm 1 m/s 650 mmHg 77%
    12:00 +1°C° 0,1 mm 1 m/s 650 mmHg 74%
    13:00 +1°C° 0,1 mm 1 m/s 650 mmHg 72%
    14:00 +1°C° 0,1 mm 1 m/s 650 mmHg 71%
    15:00 +1°C° 0,1 mm 1 m/s 650 mmHg 69%
    16:00 0°C° 0 mm 1 m/s 650 mmHg 72%
    17:00 -1°C° 0 mm 1 m/s 650 mmHg 74%
    18:00 -4°C° 0 mm 0 m/s 650 mmHg 76%
    19:00 -3°C° 0 mm 1 m/s 651 mmHg 75%
    20:00 -3°C° 0 mm 1 m/s 651 mmHg 73%
    21:00 -3°C° 0 mm 1 m/s 651 mmHg 72%
    22:00 -4°C° 0 mm 1 m/s 651 mmHg 71%
    23:00 -4°C° 0 mm 1 m/s 651 mmHg 69%

    25 Novembro, Sábado

    Tempo Temperatura Precipitação Vento Pressão Humidade
    00:00 -4°C° 0 mm 1 m/s 651 mmHg 68%
    01:00 -4°C° 0 mm 1 m/s 652 mmHg 68%
    02:00 -6°C° 0 mm 1 m/s 652 mmHg 68%
    03:00 -6°C° 0 mm 1 m/s 652 mmHg 68%
    04:00 -6°C° 0 mm 1 m/s 652 mmHg 70%
    05:00 -6°C° 0 mm 1 m/s 653 mmHg 71%
    06:00 -6°C° 0 mm 1 m/s 653 mmHg 73%
    07:00 -4°C° 0,1 mm 1 m/s 654 mmHg 72%
    08:00 -4°C° 0,1 mm 1 m/s 654 mmHg 72%
    09:00 -3°C° 0,1 mm 1 m/s 655 mmHg 71%
    10:00 -4°C° 0,1 mm 2 m/s 655 mmHg 70%
    11:00 -4°C° 0,1 mm 2 m/s 655 mmHg 69%
    12:00 -3°C° 0,1 mm 2 m/s 655 mmHg 67%
    13:00 -3°C° 0,1 mm 2 m/s 656 mmHg 67%
    14:00 -3°C° 0,1 mm 2 m/s 656 mmHg 68%
    15:00 -3°C° 0,1 mm 2 m/s 656 mmHg 68%
    16:00 -5°C° 0 mm 2 m/s 656 mmHg 70%
    17:00 -4°C° 0 mm 1 m/s 656 mmHg 73%
    18:00 -7°C° 0 mm 1 m/s 657 mmHg 75%
    19:00 -7°C° 0 mm 1 m/s 657 mmHg 74%
    20:00 -7°C° 0 mm 1 m/s 657 mmHg 74%
    21:00 -8°C° 0 mm 1 m/s 658 mmHg 73%
    22:00 -8°C° 0 mm 1 m/s 658 mmHg 72%
    23:00 -8°C° 0 mm 1 m/s 658 mmHg 71%

    26 Novembro, Domingo

    Tempo Temperatura Precipitação Vento Pressão Humidade
    00:00 -8°C° 0 mm 1 m/s 658 mmHg 70%
    01:00 -8°C° 0 mm 1 m/s 658 mmHg 69%
    02:00 -8°C° 0 mm 1 m/s 658 mmHg 67%
    03:00 -8°C° 0 mm 1 m/s 658 mmHg 65%
    04:00 -8°C° 0 mm 1 m/s 658 mmHg 62%
    05:00 -9°C° 0 mm 2 m/s 658 mmHg 60%
    06:00 -9°C° 0 mm 2 m/s 658 mmHg 57%
    07:00 -6°C° 0 mm 1 m/s 658 mmHg 57%
    08:00 -4°C° 0 mm 1 m/s 658 mmHg 57%
    09:00 -2°C° 0 mm 1 m/s 659 mmHg 57%
    10:00 -1°C° 0 mm 1 m/s 659 mmHg 55%
    11:00 -2°C° 0 mm 2 m/s 658 mmHg 54%
    12:00 -1°C° 0 mm 2 m/s 658 mmHg 53%
    13:00 -1°C° 0 mm 2 m/s 658 mmHg 54%
    14:00 +1°C° 0 mm 1 m/s 657 mmHg 56%
    15:00 +1°C° 0 mm 1 m/s 657 mmHg 58%
    16:00 -1°C° 0 mm 1 m/s 657 mmHg 57%
    17:00 -2°C° 0 mm 1 m/s 656 mmHg 56%
    18:00 -6°C° 0 mm 2 m/s 656 mmHg 55%
    19:00 -6°C° 0 mm 2 m/s 656 mmHg 52%
    20:00 -6°C° 0 mm 2 m/s 656 mmHg 48%
    21:00 -6°C° 0 mm 2 m/s 656 mmHg 45%
    22:00 -6°C° 0 mm 2 m/s 656 mmHg 43%
    23:00 -6°C° 0 mm 2 m/s 656 mmHg 42%
    Mostrar mais